Regional Weather Roundup
Issued by NWS Pendleton, OR

Home | Current Version | Previous Version | Text Only | Print | Product List | Glossary On
Versions: 1 2 3 4 5 6 7 8 9 10 11 12 13 14 15 16 17 18 19 20 21 22 23 24 25 26 27 28 29 30 31 32 33 34 35 36 37 38 39 40 41 42 43 44 45 46 47 48 49 50
000
ASUS46 KPDT 272025
RWRPDT
PENDLETON REGIONAL WEATHER ROUNDUP
NATIONAL WEATHER SERVICE PENDLETON OREGON
1200 PM PST THU NOV 27 2014

NOTE: FAIR INDICATES FEW OR NO CLOUDS BELOW 12,000 FEET WITH NO
SIGNIFICANT WEATHER AND/OR OBSTRUCTIONS TO VISIBILITY.

# INDICATES UNOFFICIAL STATION AND DATA

WAZ520-272110-
EAST SLOPES OF WASHINGTON CASCADES

CITY            SKY/WX      TMP DP  RH  WIND    PRES   REMARKS
#BULLFROG 2SW   N/A         48  48  100 CALM    27.43F
#BUMPING DAM    N/A         44  N/A N/A CALM    N/A
#CLE ELUM HS    N/A         47  45  93  CALM    29.80F
#CLE ELUM 2NW   N/A         48  45  89  SE2     N/A
#CLE ELUM LAKE  N/A         50  46  86  CALM    29.79F
#CLIFFDEL 2NW   N/A         50  40  68  W6      N/A
#GLENWOOD       N/A         52  48  86  S3      29.88F
#MANASTASH CYN  N/A         48  45  89  CALM    29.81F
#NELSON         N/A         45  44  96  CALM    29.86F
#NELSON 3SW     N/A         47  46  96  CALM    30.05F
#NILE           N/A         48  45  89  CALM    29.12F
#RONALD 2NW     N/A         49  47  93  CALM    29.70F
#SNOWDEN        N/A         49  40  71  NW2     N/A
#TEANAWAY 4NE   N/A         46  46  100 CALM    N/A
#TROUT LAKE HS  N/A         53  48  83  SW2     N/A
#TROUT LAKE 1NE N/A         52  47  83  W3      29.90F
$$

WAZ521-272110-
SIMCOE HIGHLANDS

CITY            SKY/WX      TMP DP  RH  WIND    PRES   REMARKS
#BICKLETON HS   N/A         52  38  59  W13     30.00F
#CENTERVILLE 4W N/A         54  47  77  W6      29.67F
#CENTERVILLE 1SWN/A         52  46  80  CALM    29.90F
#GOLDENDALE     N/A         52  45  77  W5      N/A
#GOLDENDALE 1NE N/A         52  44  74  CALM    N/A
#GOLDENDALE 1S  N/A         51  47  86  W1      29.91F
#GOLDENDALE 5WNWN/A         53  46  77  NW2     29.88F
#GOODNOE HILLS  N/A         60  47  62  W15     N/A
#LYLE 6NE       N/A         53  47  80  CALM    29.88F
$$

WAZ026-272110-
KITTITAS VALLEY

CITY            SKY/WX      TMP DP  RH  WIND    PRES   REMARKS
ELLENSBURG AP   CLOUDY      43  39  86  NW6     29.82F
#ELLENSBURG CWU N/A         38  37  96  W1      29.84F
#ELLENSBURG 3NE N/A         39  38  96  N1      29.85F
#ELLENSBURG     N/A         43  43  100 CALM    N/A
#ELLENSBURG 1E  N/A         38  36  92  CALM    N/A
#KITTITAS 4N    N/A         48  43  83  CALM    29.87F
#KITTITAS 3S    N/A         40  39  96  CALM    29.87F
#THORP 6N       N/A         48  46  93  CALM    29.86F
$$

WAZ027-272110-
YAKIMA VALLEY

CITY            SKY/WX      TMP DP  RH  WIND    PRES   REMARKS
SUNNYSIDE AP    CLOUDY      63  45  52  NW9     29.86F
YAKIMA AIRPORT  MOCLDY      62  43  50  S20G29  29.83F
YAKIMA-VAGABOND SUNNY       61  44  53  SW29G35 29.82F
#DONALD 2NE     N/A         65  42  43  NE6     28.71F
#GRANDVIEW      N/A         62  43  50  SW7     29.86F
#MABTON         N/A         63  47  56  S12G25  29.87F
#MOXEE 2E       N/A         60  32  35  S21     29.78F
#NACHES 2SW     N/A         58  46  64  NE2     29.87S
#OUTLOOK DOT    N/A         N/A N/A N/A W16     N/A
#SELAH 8E       N/A         54  43  66  S21G31  N/A
#TERRACE HTS    N/A         59  46  62  S7      29.81F
#TOPPENISH      N/A         61  46  58  CALM    29.78F
#WAPATO 4NE     N/A         65  42  43  NE6     28.71F
#WEST VALLEY    N/A         60  45  58  S8      29.81F
#W YAKIMA       N/A         60  45  58  S7      29.82F
#WHITE SWAN 5E  N/A         58  46  64  W8      29.86F
$$

WAZ028-272110-
LOWER COLUMBIA BASIN...WASHINGTON

CITY            SKY/WX      TMP DP  RH  WIND    PRES   REMARKS
PASCO           CLOUDY      63  44  50  SW12    29.87F
PROSSER AWOS    N/A         64  45  50  S15     29.88F
RICHLAND AWOS   MOCLDY      61  45  56  CALM    29.87F
#BASIN CITY 5SW N/A         63  50  62  S7      29.83F
#BENTON CITY    N/A         60  47  62  SW20G33 29.77F
#CONNELL 5N     N/A         57  48  72  SW7     29.86F
#CONNELL 5NW    N/A         56  49  77  S5      29.83F
#ELTOPIA 6NW    N/A         62  48  60  SW18G26 28.82F
#KAHLOTUS       N/A         57  45  64  W28G40  29.85F
#KENNEWICK      N/A         48  48  100 CALM    27.43F
#KENNEWICK 3S   N/A         65  46  50  W5      29.88F
#PATERSON       N/A         50  47  89  SW2     29.89F
#PROSSER        N/A         63  43  48  SW8     29.88S
#SAGEMOOR 2W    N/A         58  47  67  E14     29.71F
#TOUCHET 2S     N/A         63  47  56  SW8     29.87F
#WEST PASCO     N/A         63  47  56  SW7     29.88F
$$

WAZ029-272110-
FOOTHILLS OF THE BLUES...WASHINGTON

CITY            SKY/WX      TMP DP  RH  WIND    PRES   REMARKS
WALLA WALLA AP  CLOUDY      57  42  57  W5      29.89F
#COLLEGE PLACE  N/A         56  42  59  CALM    29.90F
#DAYTON SCHOOL  N/A         56  38  51  SW2     29.89F
#LOWDEN 2SE     N/A         57  48  72  CALM    29.85F
#PLEASANT VIEW 1N/A         53  46  77  S9      29.91F
#PRESCOTT       N/A         55  48  77  CALM    29.88F
#SUDBURY        N/A         60  N/A N/A CALM    N/A
#WHITMAN COLLEGEN/A         57  44  62  W2      29.92F
#WAITSBURG 5S   N/A         53  44  71  S3      29.96F
#WAITSBURG 8N   N/A         54  28  36  S7      29.85S
#WALLA WALLA 5E N/A         57  43  59  S6      N/A
#WALLA WALLA U  N/A         58  45  62  CALM    29.88F
$$

WAZ030-272110-
BLUE MOUNTAINS...WASHINGTON

CITY            SKY/WX      TMP DP  RH  WIND    PRES   REMARKS
$$

ORZ009-041-WAZ024-272110-
COLUMBIA RIVER GORGE

CITY            SKY/WX      TMP DP  RH  WIND    PRES   REMARKS
HOOD RIVER AP   CLOUDY      55  48  77  CALM    29.92F
THE DALLES AP   CLOUDY      57  48  72  NW7     29.91F
#ARLINGTON AIRPON/A         60  48  64  W12     29.98S
#CELILO DOT     N/A         56  45  66  SW2     N/A
#MARYHILL 2W    N/A         58  51  77  CALM    N/A
#MOSIER 1S      N/A         55  44  66  SW6     29.94F
#MURDOCK        N/A         57  51  80  NW5     29.92F
#RUFUS DOT      N/A         61  42  50  W10     N/A

$$

ORZ510-272110-
NORTH CENTRAL OREGON

CITY            SKY/WX      TMP DP  RH  WIND    PRES   REMARKS
#CHENOWITH 1W   N/A         52  47  83  W6      N/A
#COW CYN RST AREN/A         49  46  89  S7      N/A
#DUFUR 9E       N/A         55  44  66  SW26G37 29.94F
#GRASS VALLEY   N/A         53  44  71  S3      N/A
#GRASS VALLEY 1SN/A         53  44  71  SW5     29.94F
#KENT DOT       N/A         53  40  61  S23     N/A
#MAUPIN SCHOOL  N/A         56  48  74  CALM    28.81F
#MORO SCHOOL    N/A         59  49  69  SW6     29.95F
#SHANIKO 5WSW   N/A         48  43  83  S18     N/A    WCI 41
#SHANIKO 4NW    N/A         49  45  86  S10G28  29.94F
#TYGH VALLEY 2NEN/A         59  46  62  W2      29.91F
#WAPANITIA AIRPON/A         57  47  69  W5      29.92F
#WASCO DOT      N/A         60  43  53  W9      N/A
#WASCO 5NE      N/A         57  47  69  SW5     29.92F
$$

ORZ511-272110-
CENTRAL OREGON

CITY            SKY/WX      TMP DP  RH  WIND    PRES   REMARKS
BEND AIRPORT    LGT RAIN    48  39  71  SW14    30.03F WCI 42
MADRAS AIRPORT  LGT RAIN    50  46  86  S13     29.99F
PRINEVILLE AP   CLOUDY      52  41  66  SW12    30.04F
REDMOND AIRPORT CLOUDY      52  40  63  S18G29  29.98F
#BEND 1SW       N/A         44  42  93  W6      N/A
#BEND-AWBREY    N/A         47  44  89  E9      29.98R
#BEND-KIM LN    N/A         48  43  83  W7      30.00R
#CROOKED RVR RANN/A         51  46  83  CALM    29.94F
#CULVER         N/A         51  44  77  SW7     29.93F
#LAKE BILLY CHINN/A         52  41  66  E5      30.03F
#POWELL BUTTE 3EN/A         54  40  59  SW20G35 N/A
#POWELL BUTTE   N/A         51  40  66  SW5     29.67S
#PRINEVILLE 3N  N/A         52  42  69  E8      29.96F
#WARM SPRINGS   N/A         55  49  80  E2      29.89F


ORZ509-272110-
EAST SLOPES OF OREGON CASCADES

CITY            SKY/WX      TMP DP  RH  WIND    PRES   REMARKS
#BLUE BOX PASS  N/A         43  -6  12  SE1     N/A
#BLACK BUTTE RNCN/A         46  45  96  S1      29.98F
#CAMP SHERMAN   N/A         44  42  93  CALM    29.97F
#LA PINE DOT    N/A         45  38  76  S1      N/A
#LA PINE 4NW    N/A         43  39  86  CALM    30.07F
#LAVA BUTTE DOT N/A         43  39  86  SW3     N/A
#MT BACHELOR-MIDN/A         35  34  96  SE28G43 N/A    WCI 22
#SISTERS AIRPOR N/A         51  49  93  CALM    29.91S
#SISTERS ODOT   N/A         48  N/A N/A S2      N/A
#SISTERS 3N     N/A         48  41  77  CALM    30.01F
#SUNRIVER       N/A         44  42  93  W2      29.92F
#SUNRIVER AP    N/A         54  52  93  CALM    29.93F
#TUMALO 3W      N/A         53  42  66  SE8     29.82F
#WANOGA BUTTE D N/A         37  36  96  W15G26  N/A    WCI 28

$$

ORZ044-272110-
LOWER COLUMBIA BASIN...OREGON

CITY            SKY/WX      TMP DP  RH  WIND    PRES   REMARKS
HERMISTON       CLOUDY      60  45  58  SW8     29.89F
#BOARDMAN 3W    N/A         53  50  89  CALM    29.62S
#BOARDMAN 8SW   N/A         62  48  60  S3      29.89F
#ECHO 8SW       N/A         60  45  58  SW2     29.88S
#IONE SCHOOL    N/A         64  45  50  SW7     29.90F
#IRRIGON 4NW    N/A         47  47  100 W2      N/A
#UMATILLA SCHOOLN/A         49  49  100 NW2     29.91S
#UMATILLA       N/A         51  44  77  CALM    29.88S
$$

ORZ507-272110-
NORTHERN FOOTHILLS OF THE BLUES

CITY            SKY/WX      TMP DP  RH  WIND    PRES   REMARKS
PENDLETON AIRPT CLOUDY      58  42  55  W6      29.90F
#ADAMS 3WNW     N/A         59  45  60  SW6     29.89F
#ATHENA         N/A         62  42  48  SW1     29.90F
#CAYUSE         N/A         61  44  53  W5      29.87F
#HELIX SCHOOL   N/A         58  42  55  SW7     29.90F
#HELIX 3N       N/A         58  41  53  N7      29.88F
#HOLDMAN 5SE    N/A         58  45  62  SW8     29.92F
#HOLDMAN 6E     N/A         57  42  57  N8      29.70F
#M-F FERNDALE   N/A         58  44  60  CALM    29.89F
#M-F GROVE ELEM N/A         58  38  47  CALM    29.87F
#M-FREEWATER 5SEN/A         65  42  43  CALM    29.89F
#PENDLETON DNTN N/A         60  37  42  CALM    28.70F
#PDT AQUATIC CTRN/A         61  40  46  CALM    29.91S
#PDT SUNRIDGE   N/A         60  41  49  NW2     29.91F
#PENDLETON 7NW  N/A         58  45  62  SW6     27.35F
#TUTUILLA       N/A         62  40  44  W7      29.89F
#UMAPINE 2E     N/A         58  45  62  SE1     29.86F
#WESTON SCHOOL  N/A         63  35  35  W6      29.88F

$$

ORZ508-272110-
SOUTHERN FOOTHILLS OF THE BLUES

CITY            SKY/WX      TMP DP  RH  WIND    PRES   REMARKS
LEXINGTON       CLOUDY      64  43  46  S23G28  29.92F
#AJAX           N/A         57  37  47  S13     29.88S
#CONDON SCHOOL  N/A         54  46  74  CALM    29.91F
#CONDON 5W      N/A         50  41  71  S14     29.94F
#FOSSIL SCHOOL  N/A         54  45  71  SW7     29.94F
#HEPPNER EOC    N/A         59  43  55  S12G25  29.84F
#HEPPNER 4NE    N/A         58  41  53  SW7     29.88F
#LEXINGTON 2SE  N/A         66  44  45  SW7     29.87F
#MIKKALO        N/A         61  41  48  SW9     29.91F
#OLEX 4N        N/A         61  45  56  SW15    29.90F
#RUGGS 5NE      N/A         58  39  49  S17G25  30.07F
#RUGGS 2SW      N/A         58  42  55  SW12    29.91S

$$

ORZ502-503-272110-
BLUE MOUNTAINS

CITY            SKY/WX      TMP DP  RH  WIND    PRES   REMARKS
MEACHAM         LGT RAIN    54  39  57  CALM    29.97F
#BATTLE MTN DOT N/A         52  40  63  S12     N/A
#HARDMAN 10S    N/A         50  39  66  S8      30.08F
#HEPPNER 15SE   N/A         49  40  71  S2      29.88F
#LADD CYN SMT   N/A         48  31  51  SE15    N/A    WCI 42
#LADD CREEK ODOTN/A         51  36  56  S7      N/A
#LONG CREEK HS  N/A         50  47  89  SW21G35 29.95F
#N POWDER DOT   N/A         53  36  52  S12     N/A
#PIKES PEAK     N/A         57  35  43  SW24G35 27.99S
#TOLLGATE       N/A         47  36  65  SW9     29.92F
#TROY SCHOOL    N/A         52  45  77  CALM    29.79F
#UKIAH          N/A         55  41  59  SE8     30.03F
#WESTON 4E      N/A         56  37  49  SE7     29.83F
$$

ORZ505-272110-
JOHN DAY BASIN

CITY            SKY/WX      TMP DP  RH  WIND    PRES   REMARKS
JOHN DAY        LGT RAIN    51  41  68  SW14    30.07F
#DAYVILLE SCHOOLN/A         56  42  59  S9      30.01S
#MONUMENT HS    N/A         47  40  76  CALM    30.01F
#WINLOCK        N/A         50  46  86  N5      30.09R
$$

ORZ506-272110-
OCHOCO AND JOHN DAY HIGHLANDS

CITY            SKY/WX      TMP DP  RH  WIND    PRES   REMARKS
#BUCK CREEK DOT N/A         51  40  66  E7      N/A
#HORSE RIDGE DO N/A         50  33  52  S18G25  N/A
#KEYES SMT DOT  N/A         49  40  71  NW1     N/A
#PINE MTN OBS   N/A         41  30  65  S22G45  N/A    WCI 31
#PRAIRIE CITY   N/A         47  39  74  CALM    30.11R
#SENECA         N/A         43  N/A N/A S7      N/A
#SENECA 9NW     N/A         40  37  89  CALM    30.16F
$$

ORZ049-272110-
GRANDE RONDE VALLEY

CITY            SKY/WX      TMP DP  RH  WIND    PRES   REMARKS
LA GRANDE       CLOUDY      52  36  54  S10     29.98F
#COVE           N/A         49  43  80  CALM    30.03S
#COVE SCHOOL    N/A         50  43  77  E1      29.99R
#COVE 6NW       N/A         50  39  66  S8      30.03S
#ELGIN 3N       N/A         53  37  54  S14     29.70F
#ELGIN 1E       N/A         51  43  74  S1      N/A
#IMBLER SCHOOL  N/A         50  41  71  S9      29.95F
#ISLAND CITY 4N N/A         54  51  90  W3      29.93F
#LADD CYN DOT   N/A         53  36  52  SE12    N/A
#UNION 1S       N/A         55  39  55  S10     29.91S
$$

ORZ050-272110-
WALLOWA COUNTY

CITY            SKY/WX      TMP DP  RH  WIND    PRES   REMARKS
JOSEPH AIRPORT  LGT RAIN    52  43  71  N8      29.97S
#ENTERPRISE AP  N/A         55  37  51  SW7     29.91F
#ENTERPRISE HS  N/A         56  41  57  W1      29.96F
#IMNAHA SCHOOL  N/A         63  36  36  S17G35  29.92F
#IMNAHA 10S     N/A         59  35  40  SW16G35 29.96F
#JOSEPH 3N      N/A         56  40  55  CALM    30.00S
#JOSEPH 3W      N/A         50  39  66  S2      29.83S
#LOSTINE        N/A         54  41  61  SW10    29.77
#MT HOWARD 8000 N/A         38  N/A N/A S14G45  30.02F WCI 30
#PROMISE 1S     N/A         51  38  61  E10     30.02F
#SHEEP RDG 7000 N/A         39  32  76  CALM    29.89F
#WALLOWA SCHOOL N/A         57  41  55  CALM    30.91F



$$



USA.gov is the U.S. government's official web portal to all federal, state and local government web resources and services.